Regional Weather Roundup
Issued by NWS

Home | Current Version | Previous Version | Text Only | Print | Product List | Glossary Off
Versions: 1 2 3 4 5 6 7 8 9 10 11 12 13 14 15 16 17 18 19 20 21 22 23 24 25 26 27 28 29 30 31 32 33 34 35 36 37 38 39 40 41 42 43 44 45 46 47 48 49 50

000
ASUS43 KIND 171659
RWRIN

WEATHER ROUNDUP FOR INDIANA
NATIONAL WEATHER SERVICE INDIANAPOLIS IN
1200 PM EST SUN DEC 17 2017

NOTE: "FAIR" INDICATES FEW OR NO CLOUDS BELOW 12,000 FEET WITH NO
SIGNIFICANT WEATHER AND/OR OBSTRUCTIONS TO VISIBILITY.

* - STATION DOES NOT REPORT WEATHER SUCH AS PRECIPITATION OR FOG.

+ - STATION NOT QUALITY CONTROLLED BY THE NATIONAL WEATHER SERVICE.
    USE DATA WITH CAUTION...ESPECIALLY DEWPOINT AND RELATIVE
    HUMIDITY OBSERVATIONS.

INZ001>003-010>013-019-020-171800-
NORTHWEST INDIANA

CITY           SKY/WX    TMP DP  RH WIND       PRES   REMARKS
GARY /AIRPORT/ CLOUDY    37  30  75 S6        30.06F WCI  33
KNOX *+        MOSUNNY   37  32  81 S6        30.07F WCI  33
LA PORTE +     CLOUDY    35  30  83 S6        30.07F WCI  30
MONTICELLO +   PTSUNNY   40  31  70 S7        30.09F WCI  35

$$

LMZ046-743>745-171800-
SOUTHERN LAKE MICHIGAN

STATION/POSITION TIME  TEMP    WIND        PRES    WAVE
                       AIR SEA DIR/SP/G            HT
                 (UTC) (F)     (DEG/KT/KT) (MB)    (FT)
BURNS HARBOR     1640   37     190/  7/ 10 1018.3F
MICHIGAN CITY    1630   36     130/  7/  8   N/A

$$

INZ004-005-014>016-021>024-171800-
NORTH CENTRAL INDIANA

CITY           SKY/WX    TMP DP  RH WIND       PRES   REMARKS
GOSHEN         CLOUDY    34  29  82 SE7       30.09F WCI  28
PERU/GRISSOM   CLOUDY    40  33  74 S7        30.08F WCI  35
SOUTH BEND     MOSUNNY   33  30  88 SE10      30.08F WCI  25
WARSAW +       PTSUNNY   36  30  80 E5        30.09F WCI  32

$$

INZ006>009-017-018-025>027-171800-
NORTHEAST INDIANA

CITY           SKY/WX    TMP DP  RH WIND       PRES   REMARKS
AUBURN +       CLOUDY    32  32 100 CALM      30.13S FOG
FORT WAYNE     CLOUDY    32  29  88 E6        30.11F FOG     WCI  26
KENDALLVILLE + CLOUDY    31  31 100 SE6       30.11S FOG     WCI  25

$$

INZ028-029-035-036-043>045-051>053-171800-
WEST CENTRAL INDIANA

CITY           SKY/WX    TMP DP  RH WIND       PRES   REMARKS
LAFAYETTE      LGT RAIN  40  33  76 SW5       30.10F WCI  37
TERRE HAUTE    LGT RAIN  42  35  76 S7        30.12F

$$

INZ030>032-037>040-046>048-054>057-064-065-171800-
CENTRAL INDIANA

CITY           SKY/WX    TMP DP  RH WIND       PRES   REMARKS
FRANKFORT +    CLOUDY    43  33  67 SW8       30.13R
GREENWOOD *+   CLOUDY    43  35  73 S3        30.14R
INDIANAPOLIS   LGT RAIN  43  33  68 SW7       30.13R
-EAGLE CREEK   LGT RAIN  43  31  62 SW8       30.12S
KOKOMO +       CLOUDY    38  31  76 S6        30.10F WCI  33
MT COMFORT *+  CLOUDY    39  34  81 S7        30.12S WCI  34
SHELBYVILLE    LGT RAIN  41  33  73 S8        30.13S

$$

INZ033-034-041-042-049-050-058-059-171800-
EAST CENTRAL INDIANA

CITY           SKY/WX    TMP DP  RH WIND       PRES   REMARKS
MUNCIE         CLOUDY    43  30  60 S8        30.10F
RICHMOND +     LGT RAIN  36  34  93 S7        30.12F WCI  30

$$

INZ060-061-067>069-081>083-085>088-171800-
SOUTHWEST INDIANA

CITY           SKY/WX    TMP DP  RH WIND       PRES   REMARKS
EVANSVILLE     LGT RAIN  43  37  79 S8        30.17F
HUNTINGBURG +  CLOUDY    44  34  67 SW8       30.17R

$$

INZ062-063-066-070>080-084-089>092-171800-
SOUTH CENTRAL AND SOUTHEAST INDIANA

CITY           SKY/WX    TMP DP  RH WIND       PRES   REMARKS
BLOOMINGTON    LGT RAIN  42  33  70 W7        30.14R
SEYMOUR +      CLOUDY    45  32  61 SW3       30.15R

$$




USA.gov is the U.S. government's official web portal to all federal, state and local government web resources and services.